Temp
55 56 56 56 56 56 56 55 56 56 56 56 57 57 57 57 57 54 51 51 45 40 43 47 48 43 44 43 37 44 42 44 41 36 36 36 34 40 40 40 39 40 39 42 46 43 39 59 62 52 58 64 64 64
55 55 55 55 55 55 55 55 55 55 56 56 57 57 57 57 57 56 49 52 51 43 44 51 52 54 53 52 46 47 43 43 43 38 39 40 39 42 42 33 47 36 41 36 42 39 52 60 60 64 67 65 64 63
55 55 55 55 55 55 55 55 55 55 56 56 56 57 57 57 57 56 51 49 47 43 44 48 50 58 59 58 60 43 47 49 46 49 44 43 38 45 37 40 44 50 51 42 43 51 54 56 64 59 60 59 66 66
55 55 55 55 55 55 55 55 55 55 55 56 56 57 57 57 57 55 51 51 49 45 39 47 61 52 57 56 54 53 53 52 49 49 43 41 38 45 40 42 41 47 46 40 41 47 48 54 55 57 58 60 61 63
54 55 55 54 54 55 55 55 55 55 55 56 56 56 57 57 57 57 56 55 57 47 40 45 53 53 53 52 52 52 49 47 44 41 39 38 42 39 42 43 43 47 42 36 35 43 41 43 51 54 52 53 57 59
54 54 54 54 54 54 54 54 55 55 55 55 56 56 57 58 56 54 47 53 58 55 43 40 54 51 53 52 49 48 47 45 43 40 39 41 45 39 34 33 44 45 45 44 40 44 44 45 47 50 50 52 56 58
54 54 54 54 54 54 54 54 54 55 55 55 56 57 57 56 57 53 50 53 57 56 44 42 46 50 51 49 46 45 47 43 42 40 37 37 37 39 34 32 39 41 44 45 48 48 46 49 45 51 53 56 58 60
54 54 54 54 54 54 54 54 55 55 55 55 56 56 54 53 51 55 56 56 57 51 48 40 44 48 51 44 42 45 42 42 41 39 39 36 37 36 31 37 42 44 44 45 48 52 54 54 53 52 53 53 53 55
54 54 53 53 53 53 53 54 54 55 55 56 56 56 57 56 56 55 57 57 57 51 43 42 39 41 50 47 43 42 42 36 42 36 37 36 33 32 37 40 41 44 43 43 48 50 50 53 53 51 51 51 52 54
54 53 53 53 53 53 54 54 55 55 55 56 56 56 53 57 57 57 53 49 49 51 51 39 47 44 49 47 43 40 40 39 35 39 40 36 33 44 47 46 45 46 46 45 44 45 46 46 49 51 49 51 53 55
53 53 53 53 53 53 54 54 55 55 55 57 57 58 56 56 56 51 50 50 51 43 46 45 47 47 52 44 44 47 42 42 37 40 39 36 34 42 48 49 49 48 47 46 47 48 48 47 47 49 53 54 55 55
53 53 53 53 53 53 54 54 55 57 64 58 57 64 59 54 52 53 52 56 54 49 58 54 50 50 51 52 44 47 43 44 38 48 38 33 40 46 48 50 51 49 48 47 48 47 47 48 47 48 49 51 53 53
53 52 52 53 53 53 54 55 55 55 56 65 61 59 58 56 45 43 39 49 52 59 61 60 53 53 51 55 47 48 47 43 52 39 33 39 44 48 49 51 51 53 51 50 49 48 47 47 48 47 47 49 51 51
52 52 52 53 53 54 55 56 56 55 58 58 62 41 54 55 57 56 56 57 61 62 62 62 53 51 53 50 54 47 49 47 38 32 34 41 44 47 50 52 52 51 52 51 49 49 47 46 45 46 47 48 48 47
52 52 52 55 55 55 55 56 56 60 60 63 63 44 57 64 66 64 64 62 63 66 64 61 59 59 55 53 53 50 45 36 38 35 40 44 47 48 50 52 52 52 53 53 51 49 48 47 45 44 46 47 47 47
52 53 62 57 55 55 55 57 58 64 69 68 66 61 64 62 61 63 62 60 66 65 66 63 57 52 50 51 48 44 40 35 41 45 47 48 48 49 50 51 52 53 53 53 54 52 49 48 46 45 46 46 46 46
51 68 55 55 54 55 55 68 70 70 68 66 62 68 65 63 61 62 63 63 66 62 57 57 50 50 55 48 45 47 41 45 49 52 53 51 50 50 51 51 53 53 53 52 53 53 53 52 50 48 44 45 46 46
61 71 58 54 53 62 74 69 72 70 63 66 62 65 65 65 64 64 65 65 62 60 58 55 57 49 46 43 43 48 50 52 53 53 52 53 53 53 54 51 53 53 53 52 52 55 54 53 52 51 51 49 47 47
57 56 53 52 53 57 69 73 72 65 67 67 68 68 67 65 66 67 67 65 64 64 60 56 51 47 47 50 49 51 51 51 51 53 54 53 53 53 54 54 53 53 53 52 51 54 56 54 53 54 53 52 51 52
51 52 53 53 55 66 69 69 74 67 63 67 68 66 66 65 67 66 67 65 62 60 55 53 52 53 53 53 55 53 53 53 53 52 52 53 55 54 54 54 54 55 55 54 53 53 54 54 56 55 53 52 51 51
62 68 60 60 68 64 71 69 66 66 67 66 68 67 64 67 65 65 64 66 60 57 55 57 57 56 58 57 57 56 55 54 52 53 51 51 54 55 55 55 55 57 56 55 54 53 52 52 53 54 54 52 53 53
71 62 72 71 70 73 69 73 68 70 66 67 65 66 62 60 61 63 65 60 57 59 60 58 58 58 56 55 56 56 56 55 54 55 53 54 54 55 55 56 55 54 54 55 55 54 53 53 54 56 54 53 53 53
63 65 70 73 69 55 53 73 66 67 62 62 66 62 62 59 63 66 60 62 61 62 61 61 61 61 58 59 58 57 57 55 55 55 55 56 56 56 57 57 57 54 53 54 57 55 53 51 53 54 54 54 54 52
57 67 63 63 63 52 71 66 68 67 67 64 60 58 61 62 64 59 56 55 61 62 61 61 62 60 56 57 57 56 57 58 57 56 56 55 55 53 56 57 57 57 55 56 56 55 55 54 52 53 53 53 54 52
52 52 55 39 65 65 64 64 65 64 61 62 60 59 61 53 46 45 43 55 58 60 61 62 61 60 58 58 57 56 57 58 56 53 55 55 55 55 55 55 55 55 57 55 54 54 54 55 55 54 53 52 52 53
42 62 50 66 63 63 65 59 60 52 49 48 54 61 58 49 46 47 49 56 60 61 61 61 59 60 58 59 58 58 58 59 57 55 55 57 56 54 52 51 50 51 56 56 54 53 53 54 54 52 52 53 47 52
46 62 67 73 66 51 50 51 56 55 53 50 52 60 57 45 42 47 51 57 62 64 65 65 64 63 60 60 60 60 62 60 58 57 59 59 59 58 55 51 49 50 55 55 54 53 52 53 52 52 52 52 52 52
67 69 64 69 55 53 49 50 51 57 60 59 59 58 53 46 44 55 63 67 67 67 66 67 67 67 64 63 64 63 62 63 61 61 61 59 58 58 57 57 54 46 52 51 52 53 52 52 52 52 51 51 51 53
67 67 69 64 53 51 50 51 56 61 66 65 63 60 55 56 57 64 67 69 70 68 66 65 65 68 67 65 65 64 62 60 56 51 50 50 51 52 56 55 55 54 54 54 45 48 50 50 50 50 52 51 52 53
70 73 67 66 63 57 58 62 64 70 72 70 65 62 62 62 65 71 69 69 67 66 67 67 66 64 62 61 59 57 59 58 55 52 49 49 51 55 54 53 53 54 53 52 50 52 49 51 51 53 51 51 50 50
77 76 70 71 68 68 69 73 72 68 57 53 58 58 56 58 65 70 69 69 70 69 66 64 62 63 61 59 57 55 52 55 55 53 53 55 55 53 53 53 53 53 53 52 51 51 51 50 50 50 49 49 49 49
74 71 70 68 69 72 73 71 72 60 58 55 53 54 53 58 58 63 68 69 67 64 57 61 60 59 62 61 58 55 49 53 52 52 51 51 51 53 53 53 53 53 52 52 51 50 49 49 48 48 48 49 49 49
74 75 75 73 71 71 72 71 70 59 58 56 56 59 59 61 57 63 69 69 66 65 63 63 64 63 62 61 55 53 50 50 45 40 41 40 40 44 51 51 52 52 52 50 50 51 49 49 48 48 48 48 48 48
MSLP
1025.53 1024.94 1024.28 1023.53 1022.93 1022.46 1022.01 1021.44 1020.83 1020.29 1019.86 1019.45 1019.04 1018.69 1018.46 1018.35 1018.28 1018.47 1018.19 1018.46 1019.01 1019.18 1018.30 1017.76 1017.42 1016.95 1016.46 1016.03 1015.58 1015.03 1014.36 1013.65 1013.26 1012.72 1012.09 1011.38 1010.52 1009.74 1008.77 1008.35 1007.68 1006.89 1006.34 1005.46 1004.57 1004.23 1003.70 1002.31 1000.53 1000.37 1001.39 1000.68 1000.43 1000.01
1025.02 1024.46 1023.76 1023.09 1022.48 1021.94 1021.42 1020.89 1020.34 1019.76 1019.30 1018.90 1018.48 1018.19 1017.92 1017.85 1017.72 1017.74 1017.93 1018.01 1018.44 1018.78 1018.13 1017.49 1016.71 1016.09 1015.75 1015.74 1015.65 1015.27 1015.19 1014.68 1014.51 1014.33 1013.78 1012.88 1011.63 1010.49 1009.92 1009.87 1009.29 1008.88 1009.23 1009.18 1008.16 1007.57 1006.66 1004.67 1003.58 1002.69 1001.95 1001.86 1001.34 1000.93
1024.46 1023.81 1023.17 1022.59 1022.06 1021.46 1020.93 1020.39 1019.84 1019.32 1018.81 1018.34 1017.95 1017.64 1017.41 1017.25 1017.22 1017.35 1017.69 1018.18 1018.52 1018.60 1017.90 1016.77 1015.47 1014.56 1015.01 1014.99 1014.88 1015.32 1014.95 1014.94 1014.95 1014.85 1014.36 1013.23 1012.29 1011.69 1011.02 1010.86 1009.94 1009.25 1009.01 1009.52 1008.97 1006.95 1006.91 1005.87 1004.26 1004.31 1003.79 1003.43 1002.39 1001.39
1023.87 1023.23 1022.61 1022.12 1021.59 1021.02 1020.50 1019.91 1019.42 1018.88 1018.33 1017.83 1017.46 1017.16 1016.96 1016.92 1016.98 1017.23 1017.60 1018.08 1018.20 1018.25 1017.89 1016.30 1015.34 1015.74 1015.58 1015.39 1015.32 1015.57 1015.18 1015.11 1015.44 1014.81 1014.56 1014.24 1014.09 1013.91 1012.80 1012.35 1011.60 1011.38 1011.00 1011.17 1009.96 1008.64 1008.44 1006.33 1005.68 1005.72 1004.90 1004.32 1003.65 1002.88
1023.40 1022.67 1022.10 1021.62 1021.15 1020.62 1020.05 1019.56 1019.03 1018.46 1017.90 1017.47 1017.13 1016.87 1016.80 1016.85 1017.00 1017.10 1017.31 1017.77 1017.61 1018.16 1017.82 1016.67 1016.07 1016.25 1016.11 1015.98 1015.78 1015.72 1015.70 1015.84 1015.93 1015.87 1015.70 1015.44 1015.32 1015.38 1014.65 1013.31 1012.41 1012.83 1013.25 1013.05 1011.44 1010.90 1010.88 1008.39 1006.56 1006.21 1005.90 1005.15 1004.54 1003.85
1022.83 1022.15 1021.65 1021.13 1020.66 1020.18 1019.68 1019.17 1018.62 1018.07 1017.56 1017.24 1016.91 1016.67 1016.68 1016.74 1016.97 1017.17 1017.48 1017.84 1017.65 1017.90 1017.89 1017.09 1016.20 1016.37 1016.42 1016.45 1016.45 1016.42 1016.47 1016.64 1016.91 1016.98 1016.87 1016.88 1016.47 1016.13 1015.19 1014.26 1013.45 1014.05 1014.14 1013.27 1011.53 1010.42 1009.14 1007.50 1007.51 1006.22 1006.06 1005.44 1004.93 1003.90
1022.36 1021.71 1021.14 1020.59 1020.11 1019.70 1019.26 1018.80 1018.27 1017.79 1017.43 1017.22 1016.95 1016.82 1016.76 1016.71 1016.79 1016.97 1017.30 1017.33 1017.49 1017.78 1017.97 1017.23 1016.45 1016.42 1016.45 1016.51 1017.10 1017.33 1017.29 1017.65 1017.75 1018.07 1018.33 1018.21 1017.90 1017.65 1017.45 1016.83 1015.26 1014.11 1012.74 1011.01 1009.38 1008.52 1006.92 1006.02 1005.30 1004.94 1004.70 1003.87 1003.55 1003.30
1021.91 1021.30 1020.76 1020.18 1019.66 1019.30 1018.88 1018.41 1017.94 1017.58 1017.31 1017.25 1017.18 1017.16 1017.19 1017.07 1017.43 1017.12 1017.55 1017.58 1017.58 1017.60 1017.64 1017.34 1016.60 1016.28 1016.57 1016.77 1017.30 1017.78 1017.84 1018.20 1018.39 1018.52 1018.64 1018.70 1018.71 1018.50 1017.75 1016.76 1015.33 1013.70 1012.47 1010.27 1008.44 1007.20 1005.50 1004.34 1004.16 1004.06 1004.18 1003.93 1003.21 1002.60
1021.51 1020.89 1020.35 1019.82 1019.28 1018.90 1018.55 1018.03 1017.68 1017.37 1017.22 1017.25 1017.31 1017.27 1016.98 1017.08 1016.77 1017.28 1017.43 1017.56 1017.47 1017.63 1017.05 1016.82 1016.44 1016.11 1016.54 1016.82 1017.46 1017.95 1018.20 1018.32 1018.42 1018.43 1018.49 1018.80 1018.40 1017.76 1016.91 1016.02 1015.03 1013.26 1012.28 1010.98 1008.72 1006.99 1005.89 1004.75 1004.00 1003.51 1003.52 1003.30 1002.96 1002.45
1021.09 1020.47 1019.94 1019.39 1018.88 1018.43 1018.15 1017.71 1017.43 1017.22 1017.28 1017.39 1017.45 1017.07 1016.61 1016.45 1016.91 1017.13 1017.39 1017.10 1016.79 1016.32 1016.13 1016.17 1015.64 1015.36 1015.66 1015.91 1016.56 1017.22 1017.53 1017.49 1017.63 1017.58 1017.88 1017.98 1017.79 1016.97 1015.84 1015.41 1014.79 1013.51 1012.53 1011.05 1009.06 1007.73 1007.06 1005.89 1004.41 1003.14 1002.81 1002.74 1002.56 1002.32
1020.65 1020.02 1019.49 1018.91 1018.41 1018.01 1017.77 1017.44 1017.31 1017.21 1017.37 1017.35 1016.57 1015.78 1016.52 1016.82 1016.66 1016.54 1015.76 1015.21 1014.52 1014.54 1014.58 1014.38 1014.51 1014.04 1013.98 1014.51 1014.95 1015.59 1015.62 1016.07 1016.14 1016.55 1016.93 1017.25 1016.96 1016.31 1015.23 1014.51 1014.09 1013.46 1012.77 1011.58 1010.34 1009.14 1008.06 1006.96 1005.34 1003.66 1002.46 1002.25 1002.21 1001.93
1020.21 1019.57 1019.01 1018.44 1017.93 1017.53 1017.33 1017.13 1017.13 1017.11 1016.22 1016.38 1016.25 1015.07 1015.87 1016.06 1015.55 1014.74 1014.03 1013.10 1012.43 1012.17 1011.50 1011.69 1012.22 1012.56 1013.04 1013.58 1014.05 1014.15 1013.93 1014.39 1014.64 1015.35 1016.40 1016.98 1016.87 1016.00 1015.01 1014.22 1013.56 1013.27 1012.67 1011.98 1011.04 1009.80 1008.72 1007.57 1006.41 1004.95 1003.69 1002.98 1002.63 1002.37
1019.69 1019.07 1018.47 1017.90 1017.38 1016.89 1016.70 1016.58 1016.54 1016.19 1016.19 1015.09 1015.16 1014.39 1014.18 1013.98 1013.84 1013.62 1012.94 1012.24 1011.42 1010.73 1010.50 1010.33 1011.11 1011.73 1012.39 1012.47 1012.76 1012.46 1012.33 1013.00 1013.81 1015.46 1016.62 1016.86 1016.46 1015.76 1014.88 1014.16 1013.59 1012.91 1012.60 1012.11 1011.43 1010.78 1009.84 1008.81 1007.68 1006.53 1005.72 1005.08 1004.22 1003.68
1019.04 1018.40 1017.78 1017.23 1016.73 1016.22 1015.99 1015.97 1015.91 1016.23 1016.10 1014.78 1013.04 1013.24 1012.99 1012.39 1012.34 1012.16 1011.88 1011.46 1010.87 1010.29 1009.74 1009.33 1010.12 1010.98 1010.87 1011.42 1011.02 1011.83 1012.69 1013.69 1014.86 1016.30 1017.04 1016.78 1016.41 1015.57 1014.78 1014.10 1013.44 1012.82 1012.43 1011.95 1011.77 1011.26 1010.99 1010.35 1009.58 1008.67 1007.56 1006.82 1005.98 1005.63
1018.37 1017.63 1017.03 1016.28 1015.93 1015.65 1015.41 1015.41 1015.51 1015.48 1014.85 1013.12 1012.33 1012.15 1011.74 1011.70 1011.53 1011.54 1011.39 1011.14 1010.63 1009.82 1008.96 1008.43 1009.32 1009.84 1010.34 1011.05 1011.63 1012.50 1013.33 1014.76 1015.49 1016.31 1016.64 1016.20 1015.87 1015.15 1014.53 1014.00 1013.37 1012.81 1012.35 1011.96 1011.73 1011.49 1011.36 1011.06 1010.65 1010.19 1009.53 1008.63 1008.05 1007.60
1017.84 1016.80 1016.04 1015.85 1015.38 1014.98 1014.80 1014.92 1015.26 1014.48 1012.82 1011.99 1011.52 1011.59 1011.51 1011.64 1011.69 1011.56 1011.45 1011.22 1010.59 1009.73 1008.88 1008.64 1009.43 1010.45 1011.30 1012.07 1012.75 1013.59 1014.57 1015.28 1015.47 1015.39 1015.36 1015.46 1015.38 1014.85 1014.40 1013.91 1013.33 1012.78 1012.34 1012.01 1011.60 1011.53 1011.47 1011.42 1011.22 1011.26 1010.93 1010.54 1010.07 1009.56
1017.46 1015.91 1015.73 1015.59 1014.92 1013.89 1013.55 1013.98 1013.22 1012.58 1011.95 1011.47 1011.62 1011.60 1011.58 1011.69 1011.79 1011.65 1011.61 1011.49 1010.82 1010.46 1009.97 1010.07 1010.81 1011.24 1011.52 1012.61 1013.71 1014.47 1015.23 1015.46 1015.30 1014.98 1014.74 1014.82 1014.89 1014.52 1014.26 1013.73 1013.15 1012.61 1012.35 1012.07 1011.81 1011.50 1011.34 1011.25 1011.20 1011.32 1011.40 1011.63 1011.52 1011.31
1016.81 1014.98 1015.20 1015.49 1015.52 1014.03 1013.08 1012.92 1011.87 1011.46 1011.52 1011.56 1011.39 1011.36 1011.30 1011.37 1011.50 1011.48 1011.51 1011.53 1011.40 1011.28 1010.95 1011.25 1012.06 1012.70 1013.41 1014.31 1015.02 1015.50 1015.57 1015.59 1015.40 1015.09 1014.86 1014.65 1014.51 1014.23 1013.98 1013.68 1013.11 1012.58 1012.43 1012.23 1012.02 1011.73 1011.53 1011.37 1011.24 1011.26 1011.24 1011.58 1011.91 1011.86
1017.04 1016.41 1015.68 1015.71 1016.22 1015.55 1012.97 1011.65 1011.60 1010.91 1010.51 1010.77 1010.80 1011.14 1011.22 1011.27 1011.13 1011.05 1011.32 1011.51 1011.58 1011.67 1012.01 1012.26 1013.01 1013.98 1014.68 1015.23 1015.61 1015.80 1016.01 1016.09 1015.77 1015.22 1014.81 1014.59 1014.39 1014.28 1013.98 1013.60 1013.20 1012.74 1012.72 1012.53 1012.28 1012.23 1012.11 1011.86 1011.65 1011.60 1011.44 1011.37 1011.40 1011.35
1016.05 1015.14 1014.78 1015.19 1015.62 1014.53 1012.35 1011.27 1011.05 1010.83 1010.32 1010.60 1010.93 1011.05 1011.09 1011.11 1011.00 1010.99 1011.12 1011.46 1011.64 1011.98 1012.51 1013.19 1013.77 1014.40 1014.85 1015.23 1015.42 1015.80 1016.07 1016.08 1015.77 1015.27 1014.87 1014.73 1014.46 1014.23 1013.82 1013.49 1013.27 1012.94 1012.70 1012.60 1012.69 1012.62 1012.58 1012.38 1012.07 1011.84 1011.88 1011.75 1011.61 1011.84
1014.85 1014.09 1014.08 1014.51 1014.23 1013.79 1012.15 1011.14 1010.92 1010.73 1010.56 1010.38 1010.61 1010.80 1010.85 1010.74 1010.70 1010.71 1010.94 1011.17 1011.62 1012.26 1012.71 1013.38 1013.83 1014.22 1014.46 1014.85 1015.20 1015.52 1015.71 1015.79 1015.58 1015.22 1014.90 1014.75 1014.43 1014.01 1013.78 1013.63 1013.43 1013.29 1013.37 1013.01 1012.91 1013.04 1013.06 1013.03 1012.82 1012.25 1012.24 1012.20 1012.04 1012.48
1014.41 1013.84 1013.72 1013.27 1012.86 1011.72 1011.55 1010.73 1010.63 1010.40 1010.52 1010.17 1010.21 1010.14 1010.42 1010.65 1010.55 1010.60 1010.85 1011.11 1011.75 1012.25 1012.66 1013.04 1013.43 1013.80 1014.25 1014.61 1014.84 1015.16 1015.42 1015.37 1015.14 1014.73 1014.70 1014.62 1014.57 1014.25 1013.92 1013.63 1013.61 1013.74 1013.70 1013.71 1013.43 1013.45 1013.50 1013.25 1013.07 1012.89 1012.56 1012.51 1012.38 1012.54
1014.50 1014.21 1013.49 1012.54 1011.92 1011.99 1011.37 1010.60 1010.50 1010.27 1010.07 1010.00 1009.92 1009.99 1010.24 1010.31 1010.52 1010.62 1010.95 1010.79 1011.49 1012.15 1012.71 1013.05 1013.27 1013.47 1013.87 1014.01 1014.24 1015.10 1015.00 1015.03 1014.97 1014.81 1014.87 1014.79 1014.70 1014.53 1014.29 1014.02 1014.00 1014.27 1014.18 1014.05 1013.81 1013.86 1013.76 1013.58 1013.66 1013.44 1013.27 1012.90 1013.12 1013.15
1014.75 1014.15 1013.14 1012.37 1011.85 1011.61 1010.69 1010.56 1010.38 1010.01 1009.69 1009.99 1010.49 1010.51 1010.27 1010.46 1010.71 1011.03 1011.48 1011.89 1012.27 1012.39 1012.64 1012.95 1012.85 1013.01 1013.56 1013.70 1014.28 1014.76 1015.00 1014.97 1015.10 1015.19 1015.13 1015.13 1015.00 1014.89 1014.70 1014.56 1014.80 1014.95 1014.82 1014.49 1014.26 1014.17 1013.98 1013.92 1013.92 1013.88 1013.79 1013.94 1013.74 1013.63
1015.27 1014.38 1013.61 1012.84 1011.86 1011.12 1010.49 1010.10 1009.67 1008.87 1009.78 1010.22 1010.31 1010.18 1010.53 1012.91 1013.67 1014.11 1014.30 1013.03 1012.82 1012.56 1012.71 1012.83 1012.97 1013.08 1013.40 1013.82 1014.42 1014.85 1015.03 1015.18 1015.23 1015.20 1015.34 1015.26 1015.23 1015.26 1015.22 1015.34 1015.74 1015.73 1015.40 1015.18 1015.01 1014.75 1014.68 1014.59 1014.48 1014.52 1014.59 1014.56 1014.50 1014.63
1014.80 1013.20 1012.81 1011.35 1010.84 1011.13 1010.89 1011.22 1011.44 1012.01 1011.99 1012.39 1011.65 1010.56 1011.75 1013.38 1014.41 1014.62 1014.46 1013.80 1012.83 1012.76 1013.01 1013.17 1013.30 1013.27 1013.53 1013.73 1014.03 1014.32 1014.62 1014.81 1015.07 1015.05 1015.33 1015.32 1015.39 1015.56 1015.59 1015.80 1016.08 1016.27 1016.05 1015.83 1015.72 1015.61 1015.52 1015.39 1015.29 1015.43 1015.31 1015.26 1015.17 1015.20
1013.20 1011.52 1010.87 1010.85 1011.85 1013.04 1014.21 1014.11 1013.46 1012.79 1012.44 1012.27 1012.07 1010.91 1012.19 1014.27 1015.42 1015.00 1014.26 1013.23 1012.94 1013.08 1013.26 1013.23 1013.23 1013.22 1013.52 1013.82 1014.08 1014.30 1014.36 1014.51 1014.88 1015.00 1015.31 1015.84 1016.00 1016.23 1016.27 1016.57 1016.95 1017.19 1016.73 1016.67 1016.63 1016.37 1016.23 1016.02 1015.98 1016.14 1016.06 1015.91 1015.81 1015.87
1011.45 1010.58 1010.35 1010.54 1012.65 1013.78 1014.32 1014.30 1013.79 1012.29 1011.29 1011.47 1011.28 1011.20 1012.49 1014.44 1015.01 1014.14 1012.84 1012.63 1012.75 1013.07 1013.20 1013.14 1013.02 1012.78 1013.21 1013.47 1013.85 1014.16 1014.43 1014.56 1015.05 1015.36 1015.62 1016.12 1016.61 1016.72 1016.84 1017.06 1017.21 1017.34 1017.48 1017.53 1017.32 1017.17 1017.08 1016.84 1016.62 1016.81 1016.58 1016.34 1016.68 1016.23
1010.23 1009.90 1010.11 1010.48 1012.67 1013.16 1012.93 1013.24 1012.65 1011.70 1010.55 1010.28 1009.82 1010.86 1012.95 1013.95 1013.72 1012.71 1012.48 1012.43 1012.55 1012.73 1012.83 1012.98 1013.01 1013.11 1013.44 1013.74 1014.18 1014.61 1015.03 1015.29 1015.71 1016.16 1016.48 1016.63 1016.84 1017.21 1017.24 1017.43 1017.59 1017.66 1017.76 1017.84 1017.74 1017.65 1017.57 1017.52 1017.46 1017.41 1017.17 1017.01 1016.86 1016.72
1008.66 1008.77 1009.08 1009.38 1010.19 1010.99 1011.00 1011.28 1010.61 1010.04 1009.59 1009.48 1010.32 1011.81 1012.85 1013.24 1013.27 1012.62 1012.36 1012.34 1012.49 1012.56 1012.80 1012.97 1013.42 1013.72 1014.14 1014.50 1015.16 1015.91 1016.45 1016.89 1017.41 1017.76 1017.62 1017.49 1017.43 1017.58 1017.71 1017.93 1018.04 1018.12 1018.15 1018.12 1018.17 1017.86 1017.70 1017.65 1017.69 1017.36 1017.15 1017.10 1017.13 1017.15
1007.39 1007.28 1007.52 1007.91 1008.23 1008.75 1008.94 1009.26 1009.64 1010.53 1010.26 1011.55 1012.57 1012.87 1013.57 1013.52 1013.04 1012.67 1012.71 1012.59 1012.43 1012.81 1013.27 1013.78 1014.36 1014.76 1015.02 1015.50 1016.12 1016.73 1017.55 1018.26 1018.64 1018.87 1018.74 1018.31 1018.15 1018.32 1018.35 1018.49 1018.53 1018.59 1018.46 1018.32 1018.25 1018.07 1017.92 1017.79 1017.67 1017.62 1017.68 1017.65 1017.58 1017.65
1006.93 1006.98 1007.04 1006.84 1007.21 1007.90 1008.29 1008.18 1008.39 1010.24 1011.05 1012.13 1013.33 1013.69 1014.36 1013.36 1012.96 1013.28 1013.43 1013.10 1013.23 1013.75 1014.37 1014.74 1015.22 1015.79 1015.99 1016.44 1017.33 1018.02 1018.67 1019.40 1019.71 1019.83 1019.91 1019.74 1019.56 1019.17 1019.04 1019.04 1018.93 1018.80 1018.77 1018.64 1018.48 1018.42 1018.45 1018.33 1018.23 1018.19 1018.11 1017.98 1017.98 1017.88
1006.13 1006.06 1006.02 1006.09 1006.49 1006.80 1007.10 1007.43 1007.68 1009.80 1010.74 1011.80 1012.51 1012.80 1012.99 1012.47 1012.96 1013.49 1013.69 1014.00 1014.23 1014.51 1014.98 1015.46 1015.87 1016.22 1016.46 1016.92 1018.00 1018.82 1019.48 1020.15 1020.62 1020.90 1020.87 1020.81 1020.65 1020.36 1019.89 1019.78 1019.60 1019.41 1019.14 1019.08 1018.88 1018.77 1018.76 1018.75 1018.69 1018.56 1018.51 1018.44 1018.34 1018.28
Wind_Speed
19 20 21 22 23 22 21 21 21 20 18 18 16 15 14 12 11 3 2 8 5 3 4 7 6 7 6 4 2 9 7 4 5 8 5 4 3 5 4 8 11 8 6 2 4 2 4 16 14 15 5 4 7 9
20 21 22 22 22 21 20 20 19 18 18 17 16 14 13 11 9 4 2 3 4 2 3 4 12 13 13 12 6 3 3 6 1 4 4 4 6 2 11 6 7 5 5 5 2 4 13 18 5 18 11 11 9 7
20 21 22 22 21 20 20 20 19 18 17 16 15 14 12 8 5 4 2 2 3 1 4 4 3 8 8 12 8 1 1 5 5 5 5 4 6 9 5 2 11 13 3 5 12 10 17 22 9 17 17 19 19 7
20 21 22 21 20 21 18 18 18 17 17 16 14 12 9 4 2 6 2 3 1 2 1 1 11 6 7 8 8 6 7 5 6 5 3 3 4 8 5 6 3 7 9 14 11 13 22 14 18 18 21 21 20 23
20 22 21 20 20 20 18 19 17 17 17 15 14 11 6 0 5 4 3 3 1 0 1 4 6 3 5 6 7 8 6 3 3 3 3 3 4 5 3 5 3 11 11 6 13 23 18 27 26 23 22 22 22 19
21 21 20 20 21 19 19 17 17 16 14 13 11 5 2 5 5 2 2 1 2 1 1 2 1 4 6 7 9 8 4 3 2 3 3 3 6 5 6 5 5 14 16 19 21 18 25 31 27 28 22 21 20 20
21 21 20 19 21 20 18 15 16 14 11 9 6 4 3 3 2 1 2 3 5 2 1 2 0 1 2 3 3 3 5 3 3 2 2 2 3 4 2 3 15 21 21 24 19 16 18 21 16 11 14 18 17 16
21 21 21 20 21 20 18 15 13 10 8 5 3 4 7 12 9 3 3 4 2 1 1 1 1 3 1 2 2 2 2 2 2 2 1 1 3 2 3 5 20 14 22 25 25 19 16 13 15 16 12 15 18 16
20 20 21 21 19 19 18 16 12 8 1 1 1 3 2 3 0 3 6 3 4 3 1 1 1 1 4 2 2 1 1 0 1 1 1 2 1 1 10 9 21 24 20 25 23 19 19 10 15 14 11 14 16 13
20 20 20 21 20 19 15 13 9 2 4 4 1 3 2 3 12 8 2 3 4 5 2 2 1 2 3 3 4 3 3 2 2 2 4 1 2 6 10 4 14 19 21 26 20 20 17 17 14 13 11 10 11 11
20 20 20 20 19 17 13 10 4 7 6 3 3 0 4 6 3 2 3 4 3 2 5 5 6 1 5 4 3 4 3 4 2 3 1 2 3 12 13 12 11 14 19 23 23 17 16 17 16 14 9 8 8 7
20 20 20 20 19 17 11 8 4 4 2 4 4 2 4 3 3 4 3 4 3 4 3 3 6 5 3 3 2 4 3 5 3 4 3 3 6 12 12 11 13 12 14 17 21 24 23 23 22 21 20 12 7 8
20 20 20 19 18 17 12 8 10 15 12 4 4 5 4 2 4 3 2 5 4 4 7 6 2 2 2 4 4 3 2 4 4 4 3 3 8 10 11 9 11 11 9 12 16 18 22 23 25 23 21 18 15 16
21 21 21 19 18 16 12 8 6 4 3 5 3 7 3 1 2 4 7 6 7 9 10 7 3 4 4 3 3 4 4 6 4 4 2 5 9 9 9 10 7 12 11 10 13 15 17 19 20 23 22 20 20 21
22 23 22 14 11 11 13 6 9 4 4 3 1 2 4 6 8 8 7 7 8 9 10 4 1 2 3 3 4 5 4 5 3 2 3 5 7 7 8 10 8 10 8 9 8 11 11 14 17 19 21 20 20 20
24 24 3 8 14 14 9 6 5 4 4 3 2 6 6 7 7 7 8 8 10 9 8 4 4 4 5 3 4 6 4 3 4 1 4 4 5 7 5 9 10 6 6 6 8 6 9 8 10 12 15 17 18 19
20 3 3 9 21 23 6 3 5 4 3 2 2 5 4 5 5 5 6 7 8 7 7 4 6 6 2 5 4 4 4 5 5 6 3 2 3 6 5 7 9 6 5 6 5 6 4 6 6 7 11 9 11 12
5 4 16 18 16 7 3 5 3 3 1 1 2 2 3 3 3 3 3 3 5 7 6 4 4 9 5 6 6 5 6 7 6 6 2 3 3 5 4 7 8 7 4 6 7 5 5 6 7 5 5 8 6 6
14 16 24 19 7 4 4 3 0 4 1 4 2 4 4 3 2 2 4 3 3 3 3 4 5 4 5 4 4 5 6 6 7 7 2 5 6 7 5 6 7 7 5 5 7 7 8 5 4 4 4 4 5 4
24 21 19 10 8 4 5 3 2 5 2 1 3 1 1 3 2 1 3 5 3 3 4 4 4 4 3 2 2 2 3 4 5 6 4 4 5 7 4 4 4 5 5 4 5 8 7 8 8 5 3 4 4 7
9 2 2 9 6 6 4 3 1 2 3 1 3 1 1 3 2 1 0 5 3 2 2 3 3 4 3 3 3 1 2 3 5 6 3 3 6 5 3 3 5 5 7 5 4 6 6 5 7 4 5 4 4 7
3 5 3 6 4 1 3 2 2 1 2 2 3 4 3 2 4 2 1 2 3 3 2 3 3 1 4 5 5 5 3 7 8 3 1 4 6 6 5 4 4 5 4 6 6 5 4 4 5 7 5 2 3 6
10 3 4 4 2 2 7 2 4 4 3 3 2 2 3 3 3 4 2 2 4 4 4 2 2 2 2 6 3 5 6 6 4 4 5 5 5 6 7 6 8 5 5 6 5 4 3 5 7 6 6 6 8 6
0 4 4 3 5 5 3 4 5 4 3 1 1 4 6 1 1 2 2 7 6 4 2 1 2 1 4 5 6 2 3 5 5 5 6 5 5 5 6 6 8 7 7 5 5 5 5 5 5 4 6 11 7 5
2 6 3 6 4 5 9 10 8 4 2 1 7 7 3 8 5 4 4 3 4 3 1 3 4 4 4 6 7 6 6 5 4 3 4 3 3 5 5 6 6 7 7 7 8 8 8 7 7 9 9 6 8 11
0 4 5 5 2 4 4 5 8 5 5 4 7 7 5 4 3 0 5 6 2 3 5 4 3 4 6 5 4 4 4 4 1 2 3 4 5 5 5 6 7 6 7 7 7 8 8 6 7 7 4 9 9 9
3 6 6 5 7 8 3 3 5 4 2 5 4 2 4 7 4 4 4 6 4 5 3 2 2 3 6 5 4 3 2 4 3 3 5 8 6 7 7 7 8 5 7 10 9 8 8 7 8 8 5 5 5 9
5 6 9 6 8 3 3 2 4 5 2 5 5 2 4 8 7 4 1 3 4 4 3 1 3 1 5 3 4 3 3 4 7 8 6 9 6 4 6 5 5 9 6 6 6 8 9 9 8 7 7 7 6 3
5 3 3 7 7 1 5 7 5 5 5 11 2 5 5 4 4 3 2 4 4 1 2 5 4 6 6 5 6 9 9 8 9 12 9 6 7 6 5 6 6 6 5 5 5 4 5 4 5 5 7 5 6 4
8 6 5 3 6 7 7 10 6 7 8 2 6 7 5 3 2 4 3 4 4 4 6 6 8 8 7 7 9 12 11 11 10 9 8 7 6 6 7 6 6 6 5 5 6 5 7 2 3 3 0 4 5 5
3 4 2 5 1 4 5 6 2 8 12 10 14 9 5 1 2 4 4 3 1 7 7 9 10 9 8 9 8 9 9 9 11 11 8 6 7 7 6 6 6 5 4 4 5 4 4 4 5 6 7 7 6 7
4 3 7 8 3 6 5 5 2 4 3 4 3 3 1 3 4 4 5 6 8 8 9 9 9 8 7 9 10 11 13 8 8 8 11 8 8 8 8 6 5 5 5 5 5 7 7 6 5 7 6 7 7 7
6 6 5 2 3 0 3 3 1 6 4 3 3 3 2 2 5 3 4 6 7 8 8 8 7 6 4 10 13 11 11 9 11 8 7 8 11 11 7 7 6 5 6 6 5 6 8 9 7 7 8 9 9 9
Wind_Direction
308 307 308 309 311 315 318 316 320 320 317 315 314 312 309 302 293 270 219 178 156 205 270 229 251 262 279 261 295 333 333 342 2 5 359 337 339 322 22 32 358 17 289 170 274 31 317 345 360 38 348 66 49 1
308 309 309 311 314 320 320 320 321 318 318 317 316 316 311 308 295 255 225 175 171 175 278 322 269 263 254 266 286 299 256 327 37 351 7 316 298 290 12 13 331 50 38 339 320 293 306 336 334 321 356 2 358 25
306 308 310 315 318 322 323 326 321 322 320 318 318 318 319 313 294 209 113 115 91 357 287 265 297 28 219 238 245 259 286 5 348 324 295 312 338 10 357 14 358 348 30 40 338 331 354 325 312 354 335 348 334 347
308 312 314 318 319 325 326 323 323 321 320 324 328 325 326 329 204 146 138 153 93 106 323 358 56 56 30 26 22 352 302 354 315 313 314 344 6 29 335 329 294 31 15 336 301 320 342 295 315 328 325 331 332 337
312 314 317 320 320 326 327 328 326 321 324 329 332 332 329 58 166 185 119 180 239 66 337 323 321 71 40 31 24 32 35 29 15 1 356 354 345 351 329 247 21 14 356 321 295 303 287 276 292 301 308 310 313 318
313 315 319 321 326 327 326 325 322 323 328 335 337 350 87 112 144 187 123 60 126 19 250 345 88 28 33 52 41 46 45 49 33 10 357 6 1 7 348 333 351 337 313 292 286 274 273 272 277 279 278 275 282 297
315 317 321 323 326 326 329 326 322 327 333 340 359 66 80 157 242 317 46 128 141 126 300 274 18 63 10 49 61 27 20 42 31 62 36 354 337 17 3 281 312 313 330 320 303 280 272 263 255 253 249 253 244 269
316 319 322 324 329 329 330 326 324 330 333 345 34 47 47 86 107 128 98 123 160 133 166 308 300 198 139 68 52 356 64 18 47 7 51 13 352 32 266 279 332 330 338 341 338 328 302 264 281 282 264 247 256 258
317 321 321 326 327 327 327 327 325 328 325 159 301 315 264 224 251 72 132 178 226 259 310 241 212 330 156 112 86 91 24 55 93 271 226 139 164 60 310 5 354 343 2 341 336 354 353 310 284 281 260 252 248 244
319 322 320 324 322 321 321 319 328 344 143 151 241 227 211 74 123 141 156 214 201 202 199 220 130 217 177 141 188 156 182 193 216 222 134 142 299 333 347 13 4 353 2 349 354 4 356 357 326 305 256 247 253 244
321 320 318 317 317 318 321 320 337 134 138 219 229 285 76 148 207 211 255 225 141 270 181 214 195 281 201 184 188 208 172 166 236 135 276 61 321 354 348 7 16 8 12 5 1 8 10 5 1 358 305 247 257 256
319 317 315 313 313 312 313 309 197 223 305 296 279 127 145 203 227 275 307 272 212 246 197 204 175 205 134 127 152 195 234 180 87 121 55 359 355 339 341 358 8 14 6 14 9 12 10 13 12 17 17 22 31 27
318 315 311 309 307 302 300 287 227 265 323 266 214 226 154 230 23 104 273 289 314 327 332 310 73 70 148 190 210 226 345 63 85 57 344 21 344 336 340 348 6 5 7 19 13 24 16 16 17 18 23 20 36 39
318 314 309 305 298 292 293 291 242 181 225 239 237 332 205 352 280 26 13 349 345 329 310 308 145 180 202 199 356 36 28 37 52 25 348 310 329 324 338 347 358 357 12 16 28 17 38 32 24 20 17 23 32 33
320 315 312 294 282 290 292 280 190 192 255 256 275 290 10 12 19 21 14 353 336 313 316 318 248 57 40 42 32 22 49 27 55 310 253 281 307 315 343 348 348 350 10 358 51 39 41 44 42 32 22 22 30 31
324 311 287 324 311 304 277 173 175 225 248 271 253 17 15 25 7 11 10 357 337 325 337 22 48 51 49 41 38 25 51 352 316 255 257 53 351 321 346 344 334 339 350 4 357 69 64 61 61 59 44 30 27 33
322 232 239 352 345 315 217 199 208 231 261 289 8 35 338 51 16 16 24 358 337 350 1 15 20 4 161 54 50 57 6 14 2 350 35 108 326 321 350 334 328 333 356 359 356 3 56 98 149 93 78 68 57 40
246 337 351 351 347 293 228 198 251 242 142 302 298 248 271 113 52 21 49 30 7 12 350 63 55 27 37 22 16 9 17 15 350 335 51 9 1 333 10 330 323 330 34 8 12 13 21 28 34 54 94 143 137 92
286 295 296 303 318 300 270 181 181 274 233 180 117 39 2 348 158 104 84 32 76 60 28 21 53 47 51 50 16 9 21 357 325 317 8 9 3 351 348 338 338 335 79 26 33 34 22 47 37 45 56 36 26 48
290 269 260 260 205 255 259 170 162 267 177 118 119 23 187 285 330 14 106 87 43 70 46 44 50 84 67 62 80 51 55 324 321 330 346 16 338 317 354 343 336 349 22 68 58 52 27 12 358 44 53 36 37 47
313 211 249 169 201 218 294 313 303 331 320 211 186 251 287 272 228 150 232 148 105 90 89 104 95 139 167 144 109 133 100 312 299 301 9 3 322 335 355 4 8 32 15 1 53 62 41 23 343 10 58 29 50 91
275 341 284 191 261 160 251 196 277 307 252 255 268 209 184 217 270 116 78 271 102 110 111 117 148 176 167 204 166 166 140 275 288 319 202 31 349 350 351 356 50 25 41 11 17 62 46 26 7 14 7 81 55 58
291 202 233 248 264 53 253 230 231 225 221 227 346 307 258 185 208 149 207 190 109 106 116 142 113 160 201 273 140 129 223 266 315 27 46 23 360 4 354 9 65 33 6 20 24 13 34 44 52 14 356 350 80 61
348 269 296 290 192 247 246 219 233 245 220 231 251 274 266 146 336 263 346 52 92 93 104 171 269 352 153 208 111 120 40 35 20 56 34 15 8 2 2 39 46 29 1 14 13 15 32 14 73 39 26 49 47 45
314 290 135 288 269 267 267 277 253 256 265 344 259 258 66 57 357 57 232 223 49 53 330 83 42 50 72 62 109 106 86 69 10 56 36 355 26 29 14 74 73 24 351 7 18 21 25 18 43 38 45 41 39 57
358 227 157 262 261 267 308 2 11 75 149 196 298 330 57 88 100 324 338 350 326 58 58 44 358 49 71 64 60 70 96 117 337 36 77 346 51 26 30 50 49 22 14 6 31 17 38 17 55 83 31 59 44 81
266 247 200 217 78 70 350 287 298 307 272 220 259 227 92 73 341 248 256 248 91 80 99 197 86 34 67 59 53 31 54 108 97 79 92 64 44 37 51 54 56 10 20 30 13 17 11 12 48 37 39 36 42 57
248 288 317 352 76 88 160 226 275 271 242 202 221 130 87 175 210 257 172 99 111 75 51 54 275 250 132 158 107 89 60 88 78 56 77 81 72 44 41 69 77 72 66 43 23 26 12 12 29 51 16 47 42 16
235 229 296 297 123 169 201 187 231 235 268 287 21 84 127 192 221 217 58 38 120 154 73 38 40 61 54 79 57 66 58 50 45 51 39 26 40 41 47 47 42 48 52 35 59 48 356 357 339 346 350 33 7 1
234 190 228 286 145 187 211 195 248 271 282 336 101 105 107 120 320 348 65 59 38 81 50 52 66 57 50 53 68 71 60 56 45 30 9 8 35 44 55 41 38 39 35 35 5 14 12 78 20 320 353 51 39 41
215 283 228 286 233 192 188 221 193 55 92 44 10 40 44 233 237 88 44 339 36 72 58 69 65 47 50 61 49 84 79 59 50 36 9 357 43 46 50 47 42 38 3 31 11 11 22 19 22 37 41 44 35 59
310 299 282 293 103 147 175 247 162 94 50 62 93 91 266 275 98 70 3 6 86 84 71 71 72 62 51 99 95 83 84 76 54 44 34 32 20 21 47 39 14 23 33 14 28 30 45 39 39 46 42 33 41 32
258 269 294 329 34 184 151 223 304 110 90 108 142 152 134 102 75 111 112 69 60 78 85 86 85 100 117 98 102 101 94 96 96 89 77 62 45 39 39 19 7 22 33 37 34 38 41 42 29 29 31 30 25 26